Date String (YYYY-MM-DD hh:mm:ss) UTC,Instrument flags,Ambient pressure (hPa),Sample flow (lpm),Bypass flow (lpm),Sample temperature (°C),Ambient temperature (°C),ASC tube jacket temperature (°C),LED temperature (°C),Box temperature (°C),Sample RH (%),Span deviation,Mass concentration (μg/m³),Mass concentration (μg/m³),Mass concentration (μg/m³)
DateTimeUTC,F1_M11,P_M11,Q1_M11,Q2_M11,T1_M11,T2_M11,T3_M11,T4_M11,T5_M11,U1_M11,ZSPAN_M11,X2_M11,X0_M11,X1_M11
2023-04-26 16:00:00,,0832.7,5.01,0.00,23.0,21.5,00.0,31.3,24.5,27.3,0000.0,0002.71,0002.99,0002.55
2023-04-26 16:01:00,,0832.8,4.99,0.00,23.0,21.5,00.0,31.3,24.5,27.6,0000.0,0002.73,0003.01,0002.55
2023-04-26 16:02:00,,0832.8,4.99,0.00,23.0,21.5,00.0,31.3,24.5,27.6,0000.0,0002.76,0003.03,0002.59
2023-04-26 16:03:00,,0832.8,5.01,0.00,23.0,21.5,00.0,31.3,24.5,28.1,0000.0,0002.83,0003.11,0002.65
2023-04-26 16:04:00,,0832.8,5.01,0.00,23.0,21.5,00.0,31.3,24.5,28.3,0000.0,0002.92,0003.22,0002.73
2023-04-26 16:05:00,,0832.8,5.00,0.00,23.0,21.5,00.0,31.3,24.5,27.9,0000.0,0003.00,0003.31,0002.81
2023-04-26 16:06:00,,0832.8,4.99,0.00,23.0,21.5,00.0,31.3,24.5,28.0,0000.0,0003.09,0003.40,0002.89
2023-04-26 16:07:00,,0832.8,4.99,0.00,23.0,21.5,00.0,31.3,24.6,27.9,0000.0,0003.13,0003.46,0002.97
2023-04-26 16:08:00,,0832.8,5.00,0.00,23.0,21.5,00.0,31.3,24.5,28.4,0000.0,0003.18,0003.54,0003.05
2023-04-26 16:09:00,,0832.8,5.02,0.00,23.0,21.5,00.0,31.3,24.5,28.5,0000.0,0003.25,0003.73,0003.12
2023-04-26 16:10:00,,0832.7,5.00,0.00,23.0,21.5,00.0,31.3,24.5,28.5,0000.0,0003.31,0003.83,0003.18
2023-04-26 16:11:00,,0832.8,5.00,0.00,23.0,21.5,00.0,31.3,24.5,28.1,0000.0,0003.33,0004.44,0003.22
2023-04-26 16:12:00,,0832.8,5.00,0.00,23.0,21.5,00.0,31.3,24.5,28.2,0000.0,0003.35,0004.85,0003.25
2023-04-26 16:13:00,,0832.8,4.99,0.00,23.0,21.4,00.0,31.3,24.4,28.8,0000.0,0003.39,0004.93,0003.28
2023-04-26 16:14:00,,0832.8,5.00,0.00,22.9,21.4,00.0,31.3,24.4,29.6,0000.0,0003.40,0004.92,0003.30
2023-04-26 16:15:00,,0833.0,5.01,0.00,22.9,21.4,00.0,31.3,24.4,30.1,0000.0,0003.38,0004.84,0003.29
2023-04-26 16:16:00,,0833.1,4.99,0.00,22.9,21.4,00.0,31.3,24.4,30.5,0000.0,0003.35,0004.78,0003.27
2023-04-26 16:17:00,,0833.0,4.99,0.00,22.9,21.4,00.0,31.3,24.4,30.8,0000.0,0003.33,0004.75,0003.24
2023-04-26 16:18:00,,0832.9,5.00,0.00,22.9,21.4,00.0,31.3,24.4,31.1,0000.0,0003.31,0004.89,0003.20
2023-04-26 16:19:00,,0832.8,5.00,0.00,22.9,21.4,00.0,31.3,24.4,31.4,0000.0,0003.28,0005.40,0003.16
2023-04-26 16:20:00,,0832.8,4.99,0.00,22.9,21.4,00.0,31.3,24.4,31.6,0000.0,0003.22,0005.25,0003.12
2023-04-26 16:21:00,,0832.8,5.00,0.00,22.9,21.4,00.0,31.3,24.4,31.8,0000.0,0003.17,0005.16,0003.06
2023-04-26 16:22:00,,0832.8,4.99,0.00,22.9,21.4,00.0,31.3,24.4,32.1,0000.0,0003.12,0004.77,0002.97
2023-04-26 16:23:00,,0832.8,5.00,0.00,22.9,21.4,00.0,31.3,24.3,32.1,0000.0,0003.06,0004.01,0002.88
2023-04-26 16:24:00,,0832.8,5.01,0.00,22.9,21.4,00.0,31.3,24.4,32.3,0000.0,0002.95,0003.85,0002.79
2023-04-26 16:25:00,,0832.9,5.01,0.00,22.9,21.4,00.0,31.3,24.4,32.5,0000.0,0002.88,0003.76,0002.74
2023-04-26 16:26:00,,0832.8,4.99,0.00,22.9,21.4,00.0,31.3,24.4,32.7,0000.0,0002.83,0003.74,0002.68
2023-04-26 16:27:00,,0832.8,4.99,0.00,22.9,21.4,00.0,31.3,24.4,32.8,0000.0,0002.80,0003.70,0002.65
2023-04-26 16:28:00,,0832.8,5.00,0.00,22.9,21.4,00.0,31.3,24.3,32.9,0000.0,0002.81,0003.72,0002.66
2023-04-26 16:29:00,,0832.8,5.01,0.00,22.9,21.4,00.0,31.3,24.3,33.0,0000.0,0002.82,0003.56,0002.68
2023-04-26 16:30:00,,0832.8,5.01,0.00,22.9,21.4,00.0,31.3,24.3,33.1,0000.0,0002.86,0003.04,0002.74
2023-04-26 16:31:00,,0832.8,5.00,0.00,22.9,21.4,00.0,31.3,24.3,33.0,0000.0,0002.91,0003.07,0002.79
2023-04-26 16:32:00,,0832.8,4.99,0.00,22.8,21.3,00.0,31.3,24.3,32.9,0000.0,0002.96,0003.08,0002.85
2023-04-26 16:33:00,,0833.0,5.00,0.00,22.8,21.3,00.0,31.2,24.2,32.7,0000.0,0003.03,0003.14,0002.92
2023-04-26 16:34:00,,0833.0,4.99,0.00,22.8,21.2,00.0,31.2,24.2,32.5,0000.0,0003.10,0003.23,0002.99
2023-04-26 16:35:00,,0833.1,5.00,0.00,22.8,21.2,00.0,31.2,24.2,32.5,0000.0,0003.16,0003.40,0003.05
2023-04-26 16:36:00,,0833.3,4.99,0.00,22.8,21.2,00.0,31.2,24.2,32.5,0000.0,0003.20,0003.53,0003.09
2023-04-26 16:37:00,,0833.3,4.99,0.00,22.8,21.2,00.0,31.2,24.2,32.4,0000.0,0003.22,0003.56,0003.12
2023-04-26 16:38:00,,0833.1,5.00,0.00,22.8,21.2,00.0,31.2,24.2,32.3,0000.0,0003.25,0003.59,0003.14
2023-04-26 16:39:00,,0832.9,5.01,0.00,22.8,21.2,00.0,31.2,24.2,32.3,0000.0,0003.26,0003.59,0003.16
2023-04-26 16:40:00,,0832.8,5.01,0.00,22.8,21.2,00.0,31.2,24.2,32.4,0000.0,0003.29,0003.77,0003.18
2023-04-26 16:41:00,,0833.0,4.99,0.00,22.8,21.3,00.0,31.2,24.3,32.4,0000.0,0003.28,0003.88,0003.18
2023-04-26 16:42:00,,0832.8,4.99,0.00,22.8,21.3,00.0,31.2,24.2,32.4,0000.0,0003.28,0004.07,0003.17
2023-04-26 16:49:00,,0947.8,4.98,0.46,09.4,09.4,00.0,10.5,09.8,31.9,0000.0,,,
2023-04-26 16:49:17,,0947.8,4.98,0.46,09.4,09.4,00.0,10.5,09.8,31.9,0000.0,0000.00,0000.00,0000.00
2023-04-26 16:50:00,,0832.8,4.98,0.00,23.2,23.2,00.0,26.0,24.9,26.1,0000.0,0003.65,0005.95,0003.33
2023-04-26 16:51:00,,0832.8,5.01,0.00,23.2,23.0,00.0,27.9,24.8,26.2,0000.0,0004.07,0005.90,0003.99
2023-04-26 16:52:00,,0832.8,5.00,0.00,23.2,22.8,00.0,29.0,24.7,26.8,0000.0,0003.93,0005.21,0003.86
2023-04-26 16:53:00,,0832.8,4.99,0.00,23.1,22.6,00.0,29.7,24.6,27.3,0000.0,0003.87,0005.07,0003.79
2023-04-26 16:54:00,,0832.8,5.00,0.00,23.1,22.5,00.0,30.1,24.6,27.8,0000.0,0003.89,0005.09,0003.80
2023-04-26 16:55:00,,0833.0,5.00,0.00,23.1,22.3,00.0,30.5,24.6,28.0,0000.0,0003.88,0004.98,0003.80
2023-04-26 16:56:00,,0832.9,5.00,0.00,23.1,22.2,00.0,30.7,24.6,27.6,0000.0,0003.90,0005.17,0003.80
2023-04-26 16:57:00,,0832.8,5.00,0.00,23.1,22.1,00.0,30.8,24.5,27.3,0000.0,0003.90,0005.49,0003.80
2023-04-26 16:58:00,,0832.8,4.99,0.00,23.1,22.0,00.0,30.9,24.5,27.0,0000.0,0003.88,0005.61,0003.78
2023-04-26 16:59:00,,0832.8,4.99,0.00,23.1,21.9,00.0,31.0,24.5,27.6,0000.0,0003.88,0006.08,0003.77
